PGT909 LTFJ-LOWW

Flight info

Callsign PGT909
Flight time N/A
Altitude 36000
Route TUDBU DCT UPAMA DCT NEKUL DCT TEGRI DCT ERGUZ DCT BALUX DCT TORNO DCT NATEX NATEX2W
Aircraft A320/M-SDE3FGHIRWY/LB1

Departure

Time N/A
Airport Istanbul Sabiha Gökçen International Airport (LTFJ)

Arrival

Time 2026-04-26 20:49
Airport Vienna International Airport (LOWW)
Time Latitude Longitude Altitude Speed Heading
2026-04-26 20:27 47.52768 18.52756 38252 ft 415 kts 292°
2026-04-26 20:28 47.54881 18.44824 37619 ft 419 kts 287°
2026-04-26 20:28 47.55776 18.40713 37019 ft 418 kts 287°
2026-04-26 20:28 47.56646 18.36617 36432 ft 415 kts 287°
2026-04-26 20:28 47.57507 18.32523 35815 ft 414 kts 287°
2026-04-26 20:29 47.58352 18.28506 35203 ft 414 kts 287°
2026-04-26 20:29 47.59210 18.24434 34583 ft 413 kts 288°
2026-04-26 20:29 47.59664 18.22280 34241 ft 413 kts 288°
2026-04-26 20:29 47.60387 18.18862 33659 ft 413 kts 288°
2026-04-26 20:30 47.60958 18.16163 33142 ft 414 kts 288°
2026-04-26 20:30 47.61820 18.12080 32301 ft 416 kts 288°
2026-04-26 20:30 47.62685 18.07981 31435 ft 418 kts 288°
2026-04-26 20:30 47.63531 18.03830 30557 ft 421 kts 284°
2026-04-26 20:31 47.63982 17.99515 29528 ft 425 kts 279°
2026-04-26 20:31 47.64358 17.95140 28433 ft 428 kts 278°
2026-04-26 20:31 47.64729 17.90735 27285 ft 433 kts 278°
2026-04-26 20:31 47.65097 17.86279 26128 ft 438 kts 278°
2026-04-26 20:32 47.65466 17.81774 24953 ft 443 kts 277°
2026-04-26 20:32 47.65838 17.77219 24010 ft 443 kts 277°
2026-04-26 20:32 47.66203 17.72745 23128 ft 439 kts 277°
2026-04-26 20:32 47.66567 17.68250 22262 ft 435 kts 277°
2026-04-26 20:33 47.66926 17.63795 21438 ft 431 kts 278°
2026-04-26 20:33 47.67282 17.59382 20651 ft 428 kts 278°
2026-04-26 20:33 47.67633 17.55011 19954 ft 424 kts 278°
2026-04-26 20:33 47.67969 17.50784 19235 ft 408 kts 278°
2026-04-26 20:34 47.68289 17.46693 18526 ft 390 kts 278°
2026-04-26 20:34 47.68598 17.42781 17728 ft 375 kts 278°
2026-04-26 20:34 47.68898 17.38999 16950 ft 363 kts 278°
2026-04-26 20:34 47.69186 17.35329 16185 ft 353 kts 278°
2026-04-26 20:35 47.69466 17.31739 15439 ft 344 kts 278°
2026-04-26 20:35 47.69731 17.28287 14717 ft 336 kts 279°
2026-04-26 20:35 47.70238 17.24961 13992 ft 326 kts 294°
2026-04-26 20:35 47.71404 17.22120 13033 ft 322 kts 312°
2026-04-26 20:36 47.73135 17.20030 12034 ft 322 kts 330°
2026-04-26 20:36 47.75212 17.18895 11074 ft 323 kts 345°
2026-04-26 20:36 47.77368 17.18181 10515 ft 309 kts 345°
2026-04-26 20:36 47.79391 17.17519 10303 ft 287 kts 344°
2026-04-26 20:37 47.81285 17.16895 9995 ft 269 kts 344°
2026-04-26 20:37 47.83024 17.16320 9996 ft 243 kts 344°
2026-04-26 20:37 47.84650 17.15777 10014 ft 236 kts 343°
2026-04-26 20:37 47.86207 17.15255 10006 ft 222 kts 343°
2026-04-26 20:38 47.87680 17.14761 9906 ft 213 kts 343°
2026-04-26 20:38 47.89106 17.14280 9768 ft 206 kts 343°
2026-04-26 20:38 47.90461 17.13752 9625 ft 193 kts 335°
2026-04-26 20:38 47.91635 17.12875 9280 ft 189 kts 323°
2026-04-26 20:39 47.92627 17.11639 8803 ft 187 kts 313°
2026-04-26 20:39 47.93414 17.10103 8286 ft 187 kts 301°
2026-04-26 20:39 47.94008 17.08383 7787 ft 186 kts 299°
2026-04-26 20:39 47.94645 17.06711 7289 ft 184 kts 300°
2026-04-26 20:40 47.95249 17.05026 6818 ft 183 kts 298°
2026-04-26 20:40 47.95386 17.04628 6704 ft 183 kts 298°
2026-04-26 20:40 47.95418 17.04535 6675 ft 183 kts 298°
2026-04-26 20:40 47.95984 17.02861 6174 ft 183 kts 298°
2026-04-26 20:41 47.96542 17.01189 5715 ft 183 kts 298°
2026-04-26 20:41 47.97106 16.99491 5321 ft 181 kts 298°
2026-04-26 20:41 47.97665 16.97807 4935 ft 180 kts 298°
2026-04-26 20:41 47.98215 16.96146 4563 ft 179 kts 298°
2026-04-26 20:42 47.98750 16.94529 4456 ft 169 kts 298°
2026-04-26 20:42 47.99287 16.92912 4435 ft 176 kts 298°
2026-04-26 20:42 47.99833 16.91262 4409 ft 177 kts 298°
2026-04-26 20:42 48.00381 16.89602 4345 ft 177 kts 298°
2026-04-26 20:43 48.00921 16.87968 4272 ft 178 kts 298°
2026-04-26 20:43 48.01468 16.86311 4196 ft 177 kts 298°
2026-04-26 20:43 48.02016 16.84652 4111 ft 177 kts 298°
2026-04-26 20:43 48.02563 16.82994 4045 ft 178 kts 298°
2026-04-26 20:44 48.03109 16.81336 3979 ft 177 kts 298°
2026-04-26 20:44 48.03648 16.79701 3879 ft 178 kts 298°
2026-04-26 20:44 48.04193 16.78042 3659 ft 178 kts 299°
2026-04-26 20:44 48.04740 16.76381 3428 ft 177 kts 299°
2026-04-26 20:45 48.05274 16.74755 3197 ft 170 kts 299°
2026-04-26 20:45 48.05776 16.73223 2970 ft 159 kts 299°
2026-04-26 20:45 48.06253 16.71770 2762 ft 153 kts 299°
2026-04-26 20:45 48.06710 16.70379 2564 ft 150 kts 300°
2026-04-26 20:46 48.07164 16.68995 2373 ft 147 kts 300°
2026-04-26 20:46 48.07608 16.67640 2154 ft 143 kts 300°
2026-04-26 20:46 48.08041 16.66310 1923 ft 141 kts 299°
2026-04-26 20:46 48.08475 16.64991 1712 ft 142 kts 299°
2026-04-26 20:47 48.08907 16.63667 1528 ft 140 kts 298°
2026-04-26 20:47 48.09190 16.62803 1407 ft 140 kts 298°
2026-04-26 20:47 48.09762 16.61091 1165 ft 137 kts 297°
2026-04-26 20:47 48.10171 16.59804 969 ft 137 kts 296°
2026-04-26 20:48 48.10585 16.58528 784 ft 135 kts 297°
2026-04-26 20:48 48.11001 16.57264 629 ft 133 kts 297°
2026-04-26 20:48 48.11348 16.56205 624 ft 89 kts 295°
2026-04-26 20:48 48.11549 16.55592 615 ft 51 kts 296°
2026-04-26 20:49 48.11693 16.55307 615 ft 27 kts 314°
2026-04-26 20:49 48.11785 16.55167 611 ft 12 kts 321°
2026-04-26 20:49 48.11861 16.55140 613 ft 8 kts 12°
2026-04-26 20:49 48.11906 16.55173 622 ft 7 kts 28°
2026-04-26 20:50 48.11943 16.55203 624 ft 6 kts 28°
2026-04-26 20:50 48.11938 16.55283 615 ft 13 kts 119°
2026-04-26 20:50 48.11899 16.55403 622 ft 12 kts 115°
2026-04-26 20:50 48.11866 16.55540 615 ft 19 kts 115°
2026-04-26 20:51 48.11804 16.55733 616 ft 21 kts 117°
2026-04-26 20:51 48.11755 16.55881 624 ft 13 kts 116°
2026-04-26 20:51 48.11719 16.55993 615 ft 11 kts 116°
2026-04-26 20:51 48.11698 16.56069 618 ft 3 kts 79°
2026-04-26 20:52 48.11716 16.56089 613 ft 3 kts 31°
2026-04-26 20:52 48.11743 16.56105 626 ft 4 kts 27°
2026-04-26 20:52 48.11763 16.56120 619 ft 3 kts 26°
2026-04-26 20:52 48.11771 16.56126 619 ft 0 kts 26°